This is the latest recevied weather packets stored in our database for station/object KA9CBS. If no packets are shown the sender has not sent any weather packets the latest 10 day(s).
| Time | Temp. | Humidity | Pressure | Rain* | Wind** | Luminosity | Snow |
|---|---|---|---|---|---|---|---|
| 1787757801 | 26.11° C | 80% | 1017.2 hPa | 0 mm | - | 433 W/m² | - |
| 1787757501 | 26.11° C | 79% | 1017.3 hPa | 0 mm | - | 445 W/m² | - |
| 1787757196 | 25.56° C | 81% | 1017.3 hPa | 0 mm | - | 426 W/m² | - |
| 1787756894 | 25.56° C | 80% | 1017.6 hPa | 0 mm | - | 449 W/m² | - |
| 1787756591 | 25.56° C | 81% | 1017.6 hPa | 0 mm | - | 378 W/m² | - |
| 1787756289 | 25.56° C | 80% | 1017.5 hPa | 0 mm | - | 452 W/m² | - |
| 1787755984 | 25.56° C | 81% | 1017.5 hPa | 0 mm | - | 448 W/m² | - |
| 1787755683 | 25° C | 84% | 1017.6 hPa | 0 mm | - | 428 W/m² | - |
| 1787755379 | 25° C | 83% | 1017.4 hPa | 0 mm | - | 455 W/m² | - |
| 1787755078 | 24.44° C | 84% | 1017.5 hPa | 0 mm | - | 448 W/m² | - |
| 1787754778 | 23.89° C | 86% | 1017.7 hPa | 0 mm | - | 394 W/m² | - |
| 1787754476 | 24.44° C | 85% | 1017.6 hPa | 0 mm | - | 345 W/m² | - |
| 1787754170 | 23.89° C | 86% | 1017.6 hPa | 0 mm | - | 333 W/m² | - |
| 1787753866 | 23.89° C | 86% | 1017.9 hPa | 0 mm | - | 288 W/m² | - |
| 1787753565 | 23.89° C | 85% | 1018 hPa | 0 mm | - | 197 W/m² | - |
| 1787753263 | 23.33° C | 87% | 1017.9 hPa | 0 mm | - | 228 W/m² | - |
| 1787752959 | 23.33° C | 88% | 1018 hPa | 0 mm | - | 207 W/m² | - |
| 1787752657 | 22.78° C | 89% | 1018.2 hPa | 0 mm | - | 237 W/m² | - |
| 1787752353 | 22.78° C | 90% | 1018.1 hPa | 0 mm | - | 164 W/m² | - |
| 1787752052 | 22.22° C | 90% | 1018 hPa | 0 mm | - | 184 W/m² | - |
| 1787751747 | 22.22° C | 90% | 1018 hPa | 0 mm | - | 140 W/m² | - |
| 1787751443 | 22.22° C | 91% | 1018 hPa | 0 mm | - | 180 W/m² | - |
| 1787751138 | 21.67° C | 91% | 1018.2 hPa | 0 mm | - | 132 W/m² | - |
| 1787750833 | 21.67° C | 94% | 1018.5 hPa | 0 mm | - | 140 W/m² | - |
| 1787750528 | 21.11° C | 94% | 1018.5 hPa | 0 mm | - | 178 W/m² | - |
* Rain latest hour (hover to see other rain measurements)
** Current wind speed in m/s (hover to see current wind gust speed)